Temp
27 26 26 26 25 24 23 22 22 22 22 21 20 20 20 20 20 20 20 20 20 20 19 20 20 19 19 19 19 19 18 18 18
28 27 26 26 25 24 24 23 23 23 22 21 20 21 21 20 20 20 20 20 20 20 19 19 20 19 19 19 18 18 18 19 19
28 28 27 26 25 25 25 24 24 22 22 22 21 20 21 20 20 20 20 19 19 19 19 19 19 19 19 18 18 18 18 18 18
28 28 27 27 26 26 25 24 24 23 22 21 21 21 21 20 20 20 19 19 19 19 19 19 19 18 18 18 18 18 18 18 18
29 28 28 27 27 26 25 22 22 23 22 22 21 21 21 21 20 20 19 19 18 18 18 19 19 18 18 18 18 18 18 18 18
26 29 28 27 26 25 25 23 22 22 22 22 21 21 20 20 19 19 19 19 18 18 18 18 18 18 18 18 18 18 18 18 18
22 27 28 26 25 24 23 20 21 21 21 21 20 20 20 20 19 19 18 18 18 18 18 18 18 17 17 17 18 18 18 18 18
23 22 26 25 24 23 22 22 22 22 21 21 21 20 19 19 19 18 17 17 17 17 17 17 17 18 17 17 17 17 18 17 17
24 20 21 24 25 22 21 21 21 20 20 20 20 20 19 19 18 17 16 16 16 16 16 16 16 16 16 16 17 16 16 17 17
20 19 21 23 22 21 21 20 20 19 19 19 19 19 18 17 17 16 15 15 15 15 15 15 15 15 15 16 16 16 16 16 16
17 18 23 21 21 21 20 20 19 19 19 18 18 17 17 16 17 16 15 15 14 14 14 14 15 15 15 15 15 15 15 15 15
20 19 23 22 21 21 20 19 19 19 18 17 17 17 16 16 16 15 15 15 14 14 14 14 14 14 14 14 14 14 14 14 14
22 21 22 22 21 21 20 19 19 19 17 17 17 16 16 16 16 16 15 14 13 12 13 14 14 14 13 13 13 13 13 14 14
19 21 22 21 21 20 19 19 19 18 17 16 16 16 15 16 15 14 13 12 11 11 11 12 12 12 12 12 12 12 12 12 12
21 22 21 20 19 18 18 18 18 17 16 15 15 15 15 15 14 14 12 11 11 11 11 12 12 12 12 12 12 12 12 12 12
20 20 19 19 19 18 17 18 17 16 15 16 16 15 15 15 15 11 11 11 10 10 10 10 11 11 11 10 10 11 11 11 11
19 19 19 18 17 17 16 16 16 16 16 15 15 15 16 15 12 10 10 10 9 10 10 10 10 9 9 10 9 9 9 10 9
18 18 17 17 17 17 16 15 15 15 15 15 15 14 12 10 11 11 11 10 9 9 9 9 9 9 9 8 8 8 9 10 11
18 18 17 17 16 16 15 15 14 14 14 14 13 11 11 11 11 11 11 10 10 10 10 9 9 9 8 7 7 8 9 10 11
18 17 17 16 15 15 14 13 13 12 12 11 10 11 11 11 11 11 11 11 11 11 11 10 10 10 8 7 8 10 10 10 10
Height
1503 1508 1511 1515 1518 1522 1524 1527 1528 1536 1541 1544 1543 1544 1546 1546 1543 1539 1541 1541 1542 1542 1543 1543 1543 1542 1543 1545 1547 1549 1551 1555 1557
1500 1505 1509 1512 1517 1521 1525 1526 1531 1537 1541 1540 1541 1541 1541 1547 1544 1538 1539 1539 1540 1540 1541 1542 1542 1543 1543 1544 1545 1546 1548 1551 1554
1499 1503 1507 1511 1516 1521 1524 1526 1530 1538 1538 1536 1539 1537 1542 1545 1545 1539 1538 1540 1539 1539 1539 1540 1540 1542 1543 1543 1544 1545 1546 1547 1549
1497 1501 1505 1509 1515 1519 1525 1526 1531 1534 1537 1537 1538 1540 1542 1545 1543 1538 1537 1538 1538 1538 1539 1539 1539 1541 1541 1542 1543 1544 1544 1545 1546
1495 1499 1503 1508 1513 1519 1521 1522 1527 1529 1535 1541 1540 1540 1543 1543 1539 1536 1537 1538 1538 1537 1537 1538 1539 1539 1539 1539 1540 1541 1541 1541 1542
1499 1497 1501 1507 1508 1512 1516 1521 1525 1525 1529 1536 1537 1537 1536 1535 1535 1536 1537 1537 1537 1537 1537 1536 1536 1537 1537 1537 1537 1537 1537 1538 1538
1500 1497 1499 1500 1504 1508 1511 1518 1522 1525 1528 1529 1529 1530 1531 1533 1535 1536 1537 1536 1536 1536 1536 1535 1535 1535 1534 1535 1534 1534 1534 1533 1533
1499 1501 1490 1495 1500 1508 1509 1511 1516 1520 1522 1526 1528 1530 1532 1534 1535 1536 1536 1535 1534 1534 1534 1534 1533 1532 1532 1532 1532 1532 1531 1531 1530
1494 1499 1498 1490 1497 1507 1511 1514 1516 1519 1522 1526 1529 1531 1532 1533 1533 1533 1533 1533 1532 1532 1531 1531 1530 1529 1528 1528 1528 1528 1527 1527 1527
1482 1496 1495 1490 1497 1504 1512 1515 1518 1521 1523 1526 1529 1529 1531 1531 1530 1529 1529 1529 1529 1528 1528 1527 1526 1525 1524 1523 1523 1523 1523 1522 1521
1481 1490 1482 1489 1498 1505 1509 1514 1517 1521 1525 1526 1527 1528 1527 1526 1527 1527 1527 1526 1525 1525 1524 1524 1522 1521 1520 1519 1518 1517 1516 1516 1515
1486 1481 1479 1487 1500 1504 1507 1512 1516 1520 1523 1526 1525 1525 1524 1524 1524 1524 1523 1523 1522 1521 1520 1519 1517 1516 1516 1516 1516 1514 1513 1511 1509
1481 1479 1479 1485 1492 1498 1503 1511 1515 1518 1521 1521 1522 1522 1522 1522 1520 1519 1519 1518 1517 1516 1515 1514 1513 1512 1513 1513 1512 1510 1508 1506 1504
1470 1469 1483 1486 1492 1497 1503 1506 1512 1514 1515 1517 1518 1519 1518 1518 1516 1516 1515 1514 1514 1513 1512 1512 1511 1510 1510 1510 1509 1507 1504 1501 1500
1472 1476 1479 1487 1492 1497 1501 1506 1508 1510 1512 1514 1515 1516 1514 1514 1513 1513 1512 1512 1512 1511 1510 1510 1509 1508 1507 1506 1504 1501 1500 1499 1497
1470 1475 1480 1485 1489 1495 1499 1504 1506 1508 1510 1510 1512 1512 1512 1512 1511 1511 1511 1509 1509 1508 1507 1506 1505 1503 1502 1501 1500 1498 1496 1495 1493
1475 1478 1483 1487 1490 1495 1499 1504 1506 1507 1508 1510 1510 1510 1510 1510 1511 1511 1509 1506 1506 1506 1505 1503 1501 1500 1499 1498 1495 1493 1490 1488 1485
1481 1482 1487 1490 1492 1497 1500 1502 1505 1507 1509 1508 1508 1508 1508 1510 1510 1509 1508 1506 1506 1505 1504 1502 1501 1500 1498 1495 1492 1488 1484 1480 1478
1480 1483 1486 1490 1494 1498 1500 1503 1506 1507 1508 1507 1506 1507 1507 1508 1509 1507 1506 1505 1505 1504 1503 1502 1501 1500 1498 1495 1491 1487 1483 1479 1476
1480 1484 1488 1492 1495 1498 1500 1502 1504 1505 1504 1505 1506 1507 1507 1506 1506 1506 1505 1505 1504 1502 1502 1501 1499 1497 1496 1493 1489 1486 1482 1477 1474
Wind_Speed
28 30 25 22 20 24 27 25 23 15 13 11 13 11 9 8 8 6 5 3 3 3 4 3 3 4 5 7 8 10 14 18 20
24 29 25 24 25 22 24 26 21 14 11 7 4 7 5 6 4 4 3 4 5 5 4 3 5 6 4 5 8 8 10 16 17
24 27 28 25 26 23 20 16 14 22 14 14 12 10 5 6 4 5 5 4 7 5 5 7 7 8 7 6 8 9 10 14 14
27 25 28 25 25 20 19 19 18 22 18 12 11 14 9 8 7 3 3 3 5 7 8 8 9 10 11 11 10 12 13 14 15
30 28 31 27 25 21 23 23 17 20 19 17 12 12 10 8 5 7 4 1 1 3 6 8 8 11 13 13 13 14 16 18 17
16 31 33 29 27 22 26 28 23 17 17 16 13 10 11 9 8 6 2 4 6 5 4 3 3 5 8 11 12 14 16 18 20
23 19 34 30 31 30 25 34 33 29 24 20 17 9 6 7 5 4 5 4 5 4 7 8 7 6 5 6 7 7 10 16 20
26 18 32 33 32 25 20 21 24 22 20 16 13 8 4 2 3 5 6 7 7 8 9 10 11 11 12 12 11 10 9 10 12
22 39 26 35 25 23 23 21 19 16 14 12 9 5 2 3 4 4 6 8 11 12 12 13 14 14 14 14 12 13 13 14 14
49 49 30 29 29 27 24 23 19 15 13 8 4 1 2 3 4 5 6 8 6 6 8 8 8 9 9 10 13 16 18 20 21
46 29 34 34 29 22 19 20 19 14 9 5 1 3 3 6 7 8 8 8 9 10 10 11 11 11 11 11 11 14 15 17 20
27 35 33 29 24 25 26 23 20 14 8 3 5 7 8 8 11 12 13 13 13 12 12 13 13 15 15 15 16 17 18 20 21
20 32 35 30 33 31 30 25 19 13 9 9 9 9 10 12 14 13 9 8 8 10 14 13 12 10 9 11 16 14 14 17 25
32 33 33 31 34 30 25 21 15 9 9 8 9 10 13 12 11 9 8 9 11 10 10 9 10 9 9 12 11 12 14 15 15
39 36 33 30 26 22 18 13 9 9 9 10 10 12 11 10 9 8 7 7 7 5 6 6 7 7 7 7 7 11 13 15 15
33 31 28 22 19 13 11 11 9 9 10 10 11 10 9 7 6 6 6 7 5 6 8 8 11 12 11 12 13 18 18 17 18
27 23 22 16 15 15 13 9 8 9 11 9 9 8 6 3 7 6 7 7 9 8 11 10 9 9 10 11 13 17 20 20 21
17 19 17 18 16 13 12 11 11 11 8 7 7 3 2 1 3 5 8 5 5 5 7 9 10 12 14 17 19 21 25 24 23
22 19 18 18 17 15 14 12 9 8 5 3 1 3 0 3 2 5 9 9 9 11 12 9 9 11 14 15 18 22 19 19 19
27 24 21 20 18 16 12 10 7 4 2 1 1 3 6 4 2 5 8 11 11 8 5 7 13 17 16 17 22 18 15 18 17
Wind_Direction
157 156 161 171 174 173 184 189 196 188 167 169 175 185 207 207 211 188 216 252 255 269 289 298 292 311 287 251 241 235 232 222 230
164 167 167 176 172 172 189 192 199 193 160 129 182 193 201 226 226 188 213 242 239 262 269 282 296 285 298 276 257 247 239 228 231
177 171 169 166 171 170 169 168 177 183 152 139 119 194 195 212 226 224 243 257 254 282 267 268 266 268 269 280 275 264 254 250 243
179 178 172 174 176 173 172 174 172 155 156 156 151 161 185 205 227 239 250 272 241 257 249 252 261 260 260 264 266 258 259 257 253
179 186 177 174 170 169 168 203 180 175 162 161 156 148 150 124 95 92 72 85 4 322 284 278 270 267 262 258 260 257 260 261 261
241 190 172 171 173 169 160 165 173 144 132 126 125 121 124 112 100 118 174 251 269 262 278 315 309 274 270 272 271 268 260 257 259
331 191 168 168 157 152 165 143 143 142 143 141 138 143 134 149 175 197 228 254 269 269 250 261 268 271 287 297 296 307 295 272 266
305 319 156 163 157 155 152 153 154 158 157 163 164 166 166 179 236 238 239 241 250 259 262 262 263 259 255 261 265 287 298 279 276
234 282 177 156 166 166 156 155 156 155 156 158 164 173 227 280 284 277 275 265 264 270 272 271 269 269 269 266 261 251 267 274 278
214 246 172 154 156 157 162 160 153 157 166 174 182 228 334 320 320 329 322 315 311 296 290 288 290 296 297 290 278 272 271 272 276
206 231 157 154 162 165 162 158 162 172 189 191 248 334 286 280 301 307 298 290 286 279 273 275 277 277 275 274 272 271 274 273 273
208 177 155 162 165 161 158 167 170 179 180 179 220 254 267 289 300 297 290 288 286 286 286 279 269 261 264 271 271 273 277 280 279
215 159 153 153 162 162 165 163 177 187 181 212 237 256 280 290 300 304 312 312 308 305 301 316 312 291 291 299 297 299 291 284 281
160 151 155 159 160 158 158 167 185 186 210 231 251 272 289 302 311 312 302 309 313 333 354 2 0 347 330 321 319 323 307 292 291
150 152 148 154 152 156 163 183 192 213 231 253 272 281 286 302 306 315 335 345 338 335 344 338 325 314 309 306 297 292 303 304 290
141 148 147 151 158 166 194 207 219 228 246 267 281 284 292 302 321 346 322 331 346 316 318 304 306 316 307 310 302 289 289 295 285
152 148 145 147 156 170 182 205 222 249 262 273 271 271 277 334 33 15 352 357 3 0 358 350 346 346 352 342 333 321 314 305 306
147 150 151 158 171 191 201 221 248 261 270 273 263 265 70 12 251 272 301 8 13 10 14 14 4 10 357 344 335 335 332 327 327
159 163 170 175 183 195 207 229 246 255 250 251 143 145 336 165 52 7 4 14 29 50 36 33 8 359 350 346 342 336 343 342 334
164 168 169 174 182 195 213 226 230 249 289 338 19 10 58 80 336 349 11 22 34 46 23 359 341 344 344 354 348 351 348 351 353